Puerto Limon, Costa Rica

4:26 PM CST on September 24, 2017 (GMT -0600)
Limon International

Weather History for MRLM - August, 2013

Change the Weather History Date:

Friday, August 16, 2013

  Actual Average Record
Temperature  
Mean Temperature 79 °F -  
Max Temperature 85 °F 83 °F 89 °F (2008)
Min Temperature 73 °F 75 °F 71 °F (2011)
Cooling Degree Days 14    
Growing Degree Days 29 (Base 50)    
Moisture  
Dew Point 75 °F    
Average Humidity 80    
Maximum Humidity 91    
Minimum Humidity 73    
Precipitation  
Precipitation 0.00 in 0.29 in - ()
Sea Level Pressure  
Sea Level Pressure 29.84 in    
Wind  
Wind Speed 4 mph ()    
Max Wind Speed 10 mph    
Max Gust Speed -    
Visibility 7.6 miles    
Events Rain    
Averages and records for this station are not official NWS values.
T = Trace of Precipitation, MM = Missing Value Source: Averaged Metar Reports

Daily Weather History Graph

Daily Weather History Graph

Search for Another Location

Airport or City:

Trip Planner

Search our weather history database for the weather conditions in past years. The results will help you decide how hot, cold, wet, or windy it might be!

Date:

Astronomy

Aug. 16, 2013 Rise Set
Actual Time 5:23 AM CST 5:49 PM CST
Civil Twilight 5:01 AM CST 6:10 PM CST
Nautical Twilight 4:36 AM CST 6:36 PM CST
Astronomical Twilight 4:10 AM CST 7:01 PM CST
Moon 1:46 PM CST (8/16) 12:45 AM CST (8/16)
Length of Visible Light 13h 09m
Length of Day
12h 26m
Waxing Gibbous, 75% of the Moon is Illuminated
Aug 16
Waxing Gibbous
Aug 20
Full
Aug 28
Last Quarter
Sep 5
New
Sep 12
First Quarter

Hourly Weather History & Observations

Time (CST) Temp. Heat Index Dew Point Humidity Pressure Visibility Wind Dir Wind Speed Gust Speed Precip Events Conditions
6:00 AM 74 °F - 72 °F 91% 29.85 in 9 mi West 2.3 mph - -   Overcast
6:00 AM 75.2 °F - 71.6 °F 89% 29.84 in - West 8.1 mph - N/A   Clear
6:57 AM 78.8 °F - 75.2 °F 89% 29.85 in - SW 3.5 mph - N/A   Clear
7:00 AM 78.8 °F - 75.2 °F 89% 29.85 in - SW 3.5 mph - N/A   Clear
8:00 AM 80.6 °F 86.2 °F 75.2 °F 84% 29.87 in - West 2.3 mph - N/A   Clear
9:00 AM 82 °F - 75 °F 73% 29.89 in 9 mi SE 3.5 mph - -   Overcast
9:00 AM 82.4 °F 89.5 °F 75.2 °F 79% 29.87 in - SE 3.5 mph - N/A   Clear
10:00 AM 82.4 °F 89.5 °F 75.2 °F 79% 29.88 in - SE 6.9 mph - N/A   Clear
11:00 AM 82.4 °F 90.9 °F 77.0 °F 84% 29.84 in 6.2 mi Calm Calm - N/A   Drizzle
12:00 PM 82 °F - 77 °F 80% 29.84 in 9 mi ENE 8.1 mph - - Rain Light Drizzle
12:00 PM 82.4 °F 90.9 °F 77.0 °F 84% 29.82 in - ENE 8.1 mph - N/A   Clear
1:00 PM 84.2 °F 92.3 °F 75.2 °F 74% 29.79 in 6.2 mi East 3.5 mph - N/A   Scattered Clouds
2:00 PM 86.0 °F 96.9 °F 77.0 °F 74% 29.80 in 6.2 mi ENE 5.8 mph - N/A   Scattered Clouds
3:00 PM 84 °F - 77 °F 73% 29.82 in 9 mi East 4.6 mph - -   Overcast
3:00 PM 84.2 °F 94.1 °F 77.0 °F 79% 29.80 in 6.2 mi East 4.6 mph - N/A   Mostly Cloudy
4:00 PM 84.2 °F 92.3 °F 75.2 °F 74% 29.80 in 6.2 mi SE 5.8 mph - N/A   Scattered Clouds
5:00 PM 84.2 °F 92.3 °F 75.2 °F 74% 29.82 in - SE 10.4 mph - N/A   Clear
6:00 PM 82 °F - 75 °F 74% 29.84 in 9 mi SSW 3.5 mph - -   Haze
6:00 PM 82.4 °F 89.5 °F 75.2 °F 79% 29.83 in - SSW 3.5 mph - N/A   Clear